Regional Weather Roundup
Issued by NWS Binghamton, NY

Home | Current Version | Previous Version | Text Only | Print | Product List | Glossary On
Versions: 1 2 3 4 5 6 7 8 9 10 11 12 13 14 15 16 17 18 19 20 21 22 23 24 25 26 27
000
ASUS41 KBGM 222210
RWRBGM

REGIONAL WEATHER ROUNDUP
NATIONAL WEATHER SERVICE BINGHAMTON NY
500 PM EST SUN JAN 22 2017

Note: "fair" indicates few or no clouds below 12,000 feet with no
significant weather and/or obstructions to visibility.

* = Station(s) that does not report precipitation, such as rain,
snow, etc, also no thunder or fog.

NYZ009-015>018-022>025-036-037-044>046-055>057-062-222300
...Central New York...

CITY           SKY/WX    TMP DP  RH WIND       PRES   REMARKS
Binghamton     PTCLDY    51  45  79 NE3       29.66S
Cortland       FAIR      52  46  82 N6        29.67S
Dansville      CLOUDY    47  44  90 N5        29.68R FOG
Elmira         CLOUDY    51  44  77 E7        29.66R
Seneca Falls   CLOUDY    46  45  93 N8        29.70S
Ithaca         PTCLDY    45  43  93 W7        29.68S
Hamilton       CLOUDY    46  43  87 N6        29.70S
Monticello     CLOUDY    48  45  87 E6        29.72S
Norwich        PTCLDY    52  45  76 N6        29.69S
Oneonta        CLEAR     45  43  93 E6        29.70S
Penn Yan       MOCLDY    48  42  80 N7        29.69S
Rome           CLOUDY    46  43  89 SE8       29.75R
Sidney         MOCLDY    55  48  76 E6G16     29.68R
Syracuse       CLOUDY    48  43  82 E9        29.71R
$$

PAZ038>040-043-044-047-048-072-222300
...Northeast Pennsylvania...

CITY           SKY/WX    TMP DP  RH WIND       PRES   REMARKS
Hazleton       CLOUDY    46  46 100 E5        29.70F
Scranton       CLOUDY    53  49  86 CALM      29.68R
$$
&&
KEY
WCI = Wind Chill Index
VSB = Visibility
HX  = Heat Index
$$




USA.gov is the U.S. government's official web portal to all federal, state and local government web resources and services.